Weather History for KBOS - February, 2014

Change the Weather History Date:

Wednesday, February 5, 2014

  Actual Average Record
Temperature  
Mean Temperature 29 °F 30 °F  
Max Temperature 33 °F 37 °F 65 °F (1991)
Min Temperature 24 °F 23 °F -10 °F (1918)
Degree Days  
Heating Degree Days 36 35  
Month to date heating degree days 153 175  
Since 1 July heating degree days 3299 3285  
Cooling Degree Days 0 0  
Month to date cooling degree days 0 0  
Year to date cooling degree days 0 0  
Moisture  
Dew Point 26 °F    
Average Humidity 89    
Maximum Humidity 100    
Minimum Humidity 78    
Precipitation  
Precipitation 1.11 in 0.11 in 1.77 in (1920)
Month to date precipitation 1.30 0.54  
Year to date precipitation 4.54 3.90  
Sea Level Pressure  
Sea Level Pressure 29.94 in    
Wind  
Wind Speed 11 mph (NE)    
Max Wind Speed 22 mph    
Max Gust Speed 32 mph    
Visibility 3 miles    
Events Fog , Snow    
T = Trace of Precipitation, MM = Missing Value Source: NWS Daily Summary

Daily Weather History Graph

Daily Weather History Graph

Search for Another Location

Airport or City:

Trip Planner

Search our weather history database for the weather conditions in past years. The results will help you decide how hot, cold, wet, or windy it might be!

Date:

Astronomy

Feb. 05, 2014 Rise Set
Actual Time 6:53 AM EST 5:03 PM EST
Civil Twilight 6:23 AM EST 5:32 PM EST
Nautical Twilight 5:50 AM EST 6:06 PM EST
Astronomical Twilight 5:17 AM EST 6:39 PM EST
Moon 9:57 AM EST (2/5) No Moon Set
Length of Visible Light 11h 09m
Length of Day
10h 10m
Waxing Crescent, 39% of the Moon is Illuminated
Feb 5
Waxing Crescent
Feb 6
First Quarter
Feb 14
Full
Feb 22
Last Quarter
Mar 1
New

Hourly Weather History & Observations

Time (EST) Temp. Windchill Dew Point Humidity Pressure Visibility Wind Dir Wind Speed Gust Speed Precip Events Conditions
12:54 AM 28.9 °F 21.9 °F 23.0 °F 78% 30.27 in 10.0 mi East 6.9 mph - N/A   Overcast
1:54 AM 28.9 °F 25.2 °F 25.0 °F 85% 30.27 in 8.0 mi SSE 3.5 mph - N/A   Overcast
2:54 AM 30.0 °F 26.5 °F 25.0 °F 82% 30.27 in 8.0 mi SSE 3.5 mph - N/A   Overcast
3:54 AM 30.0 °F 26.5 °F 24.1 °F 79% 30.23 in 9.0 mi East 3.5 mph - N/A   Overcast
4:54 AM 30.9 °F 25.2 °F 26.1 °F 82% 30.22 in 10.0 mi SSE 5.8 mph - N/A   Overcast
5:33 AM 30.2 °F 23.4 °F 26.6 °F 86% 30.19 in 2.0 mi SSE 6.9 mph - 0.00 in Snow Light Snow
5:37 AM 30.2 °F 22.6 °F 26.6 °F 86% 30.19 in 1.0 mi South 8.1 mph - 0.00 in Snow Light Snow
5:45 AM 30.2 °F 23.4 °F 26.6 °F 86% 30.19 in 0.8 mi SE 6.9 mph - 0.01 in Snow Light Snow
5:54 AM 28.9 °F 20.4 °F 26.1 °F 89% 30.18 in 0.8 mi ESE 9.2 mph - 0.03 in Snow Light Snow
6:01 AM 28.4 °F 17.5 °F 26.6 °F 93% 30.18 in 0.2 mi ESE 13.8 mph - 0.02 in Fog , Snow Snow
6:24 AM 28.4 °F 20.4 °F 26.6 °F 93% 30.18 in 0.2 mi East 8.1 mph - 0.07 in Fog , Snow Heavy Snow
6:54 AM 28.9 °F 19.8 °F 27.0 °F 92% 30.15 in 0.2 mi East 10.4 mph - 0.17 in Fog , Snow Heavy Snow
7:23 AM 28.4 °F 22.2 °F 26.6 °F 93% 30.13 in 0.2 mi NE 5.8 mph - 0.08 in Fog , Snow Snow
7:44 AM 28.4 °F 22.2 °F 26.6 °F 93% 30.13 in 0.2 mi NE 5.8 mph - 0.13 in Fog , Snow Heavy Snow
7:51 AM 28.4 °F 24.6 °F 28.4 °F 100% 30.14 in 0.2 mi NE 3.5 mph - 0.16 in Fog , Snow Heavy Snow
7:54 AM 28.9 °F 25.2 °F 28.0 °F 96% 30.14 in 0.2 mi NNE 3.5 mph - 0.16 in Fog , Snow Heavy Snow
8:12 AM 28.4 °F 23.3 °F 26.6 °F 93% 30.13 in 0.2 mi North 4.6 mph - 0.05 in Fog , Snow Heavy Snow
8:54 AM 30.0 °F 23.2 °F 28.0 °F 92% 30.08 in 0.2 mi NNE 6.9 mph - 0.17 in Fog , Snow Heavy Snow
9:11 AM 28.4 °F 19.1 °F 28.4 °F 100% 30.06 in 0.2 mi NNE 10.4 mph - 0.06 in Fog , Snow Heavy Snow
9:21 AM 28.4 °F 19.1 °F 26.6 °F 93% 30.04 in 0.2 mi NNE 10.4 mph - 0.10 in Fog , Snow Snow
9:45 AM 30.2 °F 21.9 °F 28.4 °F 93% 30.03 in 0.2 mi NE 9.2 mph - 0.18 in Fog , Snow Snow
9:54 AM 30.9 °F 22.8 °F 28.9 °F 92% 30.03 in 0.2 mi NE 9.2 mph - 0.21 in Fog , Snow Snow
9:58 AM 30.2 °F 22.6 °F 28.4 °F 93% 30.03 in 0.2 mi NE 8.1 mph - 0.01 in Fog , Snow Heavy Snow
10:49 AM 32.0 °F 21.2 °F 30.2 °F 93% 29.95 in 0.2 mi East 16.1 mph - 0.10 in Fog , Snow Heavy Snow
10:54 AM 32.0 °F 21.2 °F 30.0 °F 92% 29.94 in 0.5 mi East 16.1 mph - 0.11 in Fog , Snow Snow
11:41 AM 32.0 °F 20.8 °F 30.2 °F 93% 29.87 in 0.5 mi East 17.3 mph - 0.06 in Fog , Snow Snow
11:48 AM 32.0 °F 21.6 °F 30.2 °F 93% 29.86 in 1.0 mi East 15.0 mph - 0.07 in Snow Light Snow
11:54 AM 32.0 °F 20.8 °F 30.9 °F 96% 29.85 in 1.0 mi East 17.3 mph - 0.08 in Snow Light Snow
12:54 PM 33.1 °F 21.5 °F 30.9 °F 92% 29.75 in 1.0 mi East 19.6 mph - 0.02 in Snow Light Snow
1:09 PM 32.0 °F 20.5 °F 30.2 °F 93% 29.73 in 1.0 mi ENE 18.4 mph 28.8 mph 0.01 in Snow Light Snow
1:36 PM 33.8 °F 23.5 °F 30.2 °F 87% 29.71 in 1.8 mi ENE 16.1 mph - 0.02 in Snow Light Snow
1:51 PM 33.8 °F 22.8 °F 30.2 °F 87% 29.70 in 1.8 mi ENE 18.4 mph 24.2 mph 0.02 in Snow Light Snow
1:54 PM 33.1 °F 21.9 °F 30.9 °F 92% 29.70 in 1.8 mi East 18.4 mph 24.2 mph 0.02 in Snow Light Snow
2:37 PM 33.8 °F 22.8 °F 30.2 °F 87% 29.66 in 1.5 mi East 18.4 mph - 0.03 in Snow Light Snow
2:54 PM 33.1 °F 21.5 °F 30.9 °F 92% 29.63 in 1.5 mi ENE 19.6 mph - 0.04 in Snow Light Snow
3:09 PM 33.8 °F 22.5 °F 30.2 °F 87% 29.66 in 0.8 mi ENE 19.6 mph - 0.00 in Snow Light Snow
3:35 PM 33.8 °F 25.8 °F 30.2 °F 87% 29.66 in 1.0 mi NE 10.4 mph - 0.01 in Snow Light Snow
3:54 PM 33.1 °F 24.9 °F 30.9 °F 92% 29.68 in 0.8 mi NE 10.4 mph - 0.02 in Snow Light Snow
4:54 PM 32.0 °F 23.6 °F 30.9 °F 96% 29.66 in 0.2 mi North 10.4 mph - 0.05 in Fog , Snow Snow
5:54 PM 27.0 °F 14.7 °F 24.1 °F 89% 29.67 in 0.8 mi North 16.1 mph - 0.01 in Snow Light Snow
6:22 PM 26.6 °F 14.7 °F 23.0 °F 86% 29.69 in 0.8 mi North 15.0 mph - 0.01 in Snow Light Snow
6:43 PM 26.6 °F 14.3 °F 23.0 °F 86% 29.70 in 2.5 mi North 16.1 mph - 0.01 in Snow Light Snow
6:54 PM 26.1 °F 13.6 °F 23.0 °F 88% 29.70 in 2.5 mi North 16.1 mph - 0.01 in Snow Light Snow
7:03 PM 26.6 °F 13.8 °F 21.2 °F 80% 29.71 in 7.0 mi North 17.3 mph 25.3 mph 0.00 in Snow Light Snow
7:21 PM 26.6 °F 14.3 °F 21.2 °F 80% 29.71 in 9.0 mi North 16.1 mph - 0.00 in   Overcast
7:54 PM 26.1 °F 14.0 °F 21.9 °F 84% 29.73 in 10.0 mi North 15.0 mph - 0.00 in   Overcast
8:54 PM 25.0 °F 14.8 °F 19.9 °F 81% 29.78 in 9.0 mi North 10.4 mph - N/A   Overcast
9:19 PM 24.8 °F 14.6 °F 19.4 °F 80% 29.81 in 10.0 mi North 10.4 mph - 0.00 in Snow Light Snow
9:45 PM 24.8 °F 15.3 °F 19.4 °F 80% 29.82 in 5.0 mi North 9.2 mph - 0.00 in Snow Light Snow
9:54 PM 25.0 °F 15.5 °F 19.0 °F 78% 29.84 in 5.0 mi North 9.2 mph - 0.00 in Snow Light Snow
10:54 PM 24.1 °F 14.4 °F 19.9 °F 84% 29.88 in 4.0 mi North 9.2 mph - 0.01 in Snow Light Snow
11:54 PM 24.1 °F 14.4 °F 19.0 °F 81% 29.95 in 4.0 mi NNW 9.2 mph - 0.00 in Snow Light Snow